Location: Cheyres
(46.8153°N, 6.7877°E)
Time: 23:36:08
(UTC+00:00)

Cosmos 1328 Rocket - Pass Details

Date: 23 September 2021
Orbit: 601 x 627 km, 82.5° (Epoch: 19 October)

Event Time Altitude Azimuth Distance (km) Brightness Sun altitude
Exits shadow 04:12:09 19° 250° (WSW) 1,477 4.9 -12.5°
Maximum altitude 04:14:07 26° 289° (WNW) 1,220 4.6 -12.2°
Drops below altitude 10° 04:17:45 10° 346° (NNW) 1,962 6.1 -11.6°
Sets 04:20:17 0° 359° (N) 2,868 7.1 -11.1°
